Espace membre
Imprimable
Torhout, 22-23/06/2012, BEL - Nacht van Vlaanderen
Liste des rapports > Marathon - Classement
Recherche: Page: [1]
72 Entrées
 
Les réclamations ne sont plus acceptées, les résultats sont considérés comme définitifs.
RangNrNomAgeIOCEquipeRéelTempsTkmMoy.ScrLocalité
1.1230REIGEL Hans42BELLAT - LEBBEEKSE ATLETIEK 2:37:102:37:103:44 16.115LEBBEKE
2.1210PAREIN Filiep44BELNEE2:44:142:44:143:54 15.428GELUWE
3.1117DU FOUR Claude41BELNEE2:56:312:56:344:12 14.3413OETINGEN
4.1377CLARYSSE Bart43BEL3:02:283:02:284:20 13.8829
5.1259TACK Rony41BELNEE3:02:543:02:544:21 13.8431IZEGEM
6.1294VANDAELE Erwin41BELNEE3:06:133:06:214:25 13.5933KKOKSIJDE
7.1102DERUWEZ Filip42BELFLAC - FLANDERS ATLETIEK 3:06:473:06:484:26 13.5535WOESTEN
8.1148HENS Zeger40BELKAAG - KAA GENT3:07:373:07:454:27 13.4838GENT
9.1375VAN ZEGBROECK Koen41BELVDAB3:07:503:08:014:28 13.4739SINT-AMANDS
10.1392STYNEN Geert43BEL3:09:143:09:144:30 13.3840
11.1211PATTYN Dominique43BELFLAC - FLANDERS ATLETIEK 3:09:313:09:314:30 13.3643INGELMUNSTER
12.1243SEYNAEVE Henk41BELHAC - HOUTLAND ATLETIEK C3:09:453:09:514:30 13.3446EERNEGEM
13.1339VERSCHUEREN Geert43BELNEE3:10:053:10:054:31 13.3249HEIST-OP-DEN-BERG
14.1112BROUCKAERT Bernard41BELNEE3:10:143:10:224:31 13.3050GITS
15.1087DECUMAN Philippe42BELNEE3:12:013:12:034:34 13.1853AALTER
16.1396DEHING Filip41BEL3:12:253:12:254:34 13.1654
17.1387WILLEMS Tony41BEL3:12:593:13:144:35 13.1056
18.1097DEN HAESE Wim43BELNEE3:20:093:20:584:46 12.6073MELSEN (MERELBEKE)
19.1078DEBEUF Nico41BELROAD RUNNERS TORHOUT3:21:313:21:444:47 12.5578LICHTERVELDE
20.1309VANDEWALLE Xavier43BELNEE3:21:553:22:124:48 12.5282BREDENE
21.1290VAN VOOREN David42BELNEE3:22:493:22:494:49 12.4885EEKLO
22.1218PIETERS Lieven44BELNEE3:25:013:25:014:52 12.3592KOKSIJDE
23.1304VANDERMEERSCH Patrick44BELNEE3:25:133:25:134:52 12.3494ZINGEM
24.1385VANDAELE Diederik42BEL3:25:493:25:494:53 12.3097
25.1070DE PAUW Pascal41BELNEE3:26:543:27:144:55 12.22102SINT-AMANDSBERG
26.1035BRULEZ Kurt44BELNEE3:26:463:27:194:55 12.21103ROESELARE
27.1416VERCOOREN Kris41BEL3:28:053:28:054:56 12.17108
28.1124FINAUT Sebastien42BELNEE3:28:213:28:214:57 12.15109SNELLEGEM (JABBEKE)
29.1011BAETENS Marco43BELNEE3:30:493:30:495:00 12.01119WILRIJK
30.1419GABRIELS Peter42BEL3:32:133:32:285:03 11.92128JABBEKE
31.1330VERHAEGHE Andy41BELROAD RUNNERS TORHOUT3:32:483:33:025:03 11.88130TORHOUT
32.1275VAN DEN BOGAERT Herman43BELNEE3:37:213:37:215:10 11.65143WOMMELGEM
33.1084DECLOEDT Johan43BELNEE3:37:553:38:015:11 11.61145ZWEVEZELE
34.1388MICHIELS Rudy44BEL3:38:003:38:415:11 11.58148
35.1340VERSPEELT Fritz45BELNEE3:38:393:38:545:12 11.57149BELLEGEM
36.1126FINI Francesco42BELNEE3:40:053:40:295:14 11.48156BRUXELLES
37.1409GOOSSEN Erik413:40:383:40:385:14 11.48157
38.1203MOUTON Bart44BELNEE3:41:153:41:155:15 11.44160HOOGLEDE
39.1322VANTHOURNOUT Stefaan42BELNEE3:41:483:41:485:16 11.41163TORHOUT
40.1326VERBEKE Gert44BELNEE3:41:193:41:495:16 11.41164GELUWE
41.1405DEBACKER Dieter42BEL3:42:083:42:365:17 11.37170
42.1417VAN DE GENACHTE Eddy45BEL3:43:253:44:015:19 11.30174EEKLO
43.1276VAN DEN BUSSCHE Peter42BELNEE3:43:553:44:025:19 11.30175MERELBEKE
44.1251SNOECKX Luc45BELNEE3:43:543:44:395:20 11.27178HECHTEL-EKSEL
45.1133GESQUIERE Hein42BELFLAC - FLANDERS ATLETIEK 3:45:243:45:245:21 11.23181POPERINGE
46.1121DURNEZ Jos44BELNEE3:46:163:46:165:22 11.19185DADIZELE
47.1038BUYSSE Carry44BELNEE3:49:363:50:025:28 11.01198MEETKERKE
48.1232RENERS Frank43BELNEE3:51:433:52:255:31 10.89211ZONHOVEN
49.1247SEYNHAEVE Jan43BELNEE3:52:243:52:595:32 10.87215WEVELGEM
50.1064DE BACKER Kristof40BELNEE3:55:523:56:015:36 10.73222KORTRIJK
51.1201MORTELÉ Gino42BELROAD RUNNERS TORHOUT3:57:173:57:175:38 10.67228TORHOUT
52.1349WATERSCHOOT Hans45BELNEE4:01:054:01:055:43 10.50247HAMME
53.1063COUSSEMENT Bart44BELNEE4:00:414:01:155:44 10.49248NOKERE
54.1350WAUTERS Tom43BELNEE4:02:174:02:365:45 10.44254BRASSCHAAT
55.1083DECLERCK Peter45BELNEE4:02:494:02:495:46 10.43256IZEGEM
56.1281VAN GEETERUYEN Johan41BELNEE4:05:084:05:265:49 10.32267SINT PAUWELS
57.1221POLLENTIER Patrick43BELNEE4:05:104:05:385:50 10.31268ASSEBROEK
58.1422CRANSKENS Didier42BELSANDOZ4:06:404:07:255:52 10.23281BRUGGE
59.1335VERMEYLEN Gerry41BELNEE4:08:194:08:335:54 10.19286SCHERPENHEUVEL
60.1130GEIRNAERT Filip43BELNEE4:11:234:11:595:59 10.05295DRONGEN
61.1364DUCHATEAU Rene44BELVREDESEILANDEN4:13:234:13:466:01 9.98305BINKOM
62.1162JONCKHEERE Bart42BELNEE4:13:474:13:476:01 9.98306ROESELARE
63.1433MOOYAERT Nico44BEL4:13:474:14:216:02 9.95309
64.1187MAEYENS Stef43BELNEE4:16:154:16:566:06 9.85316POESELE
65.1182LINGIER Joeri43BELNEE4:19:104:19:486:10 9.75321KORTEMARK
66.1168KERWYN Bart42BELNEE4:24:224:24:596:17 9.55332EEKLO
67.1386DELARNE Peter44BEL4:26:104:26:586:20 9.48335
68.1307VANDEVOORDE Kristof40BELNEE4:27:204:27:386:21 9.46340BAVIKHOVE
69.1410LAPERE Bruno40BEL5:00:045:00:047:07 8.44367GULLEGEM
DNF1403MAERTENS Jos42BEL
DNF1408THYS Dirk43BEL
DNF1288VAN RAEMDONCK Marc40BELNEELICHTERVELDE
DNF: abandon; DSQ: disqualifié; Vitesse en km/h
Page: [1]